{"data":{"norad_id":55490,"epoch":"2026-09-20T10:41:49.636896Z","epoch_age_seconds":105048,"freshness":"FRESH","line1":"1 55490U 23015AT  26263.44571339  .00001910  00000+0  78933-4 0  9993","line2":"2 55490  43.0026 319.5927 0001227 262.0029  98.0683 15.27569599200384","mean_motion":15.27569599,"eccentricity":0.0001227,"inclination_deg":43.0026,"raan_deg":319.5927,"arg_perigee_deg":262.0029,"mean_anomaly_deg":98.0683,"bstar":7.8933e-5,"rev_number":20038,"period_min":94.267390562281,"perigee_km":482.23836919669,"apogee_km":483.92211190752,"semimajor_km":6861.2172405521,"source":"CELESTRAK","updated_at":"2026-09-21T09:00:33.258648Z"}}